RH
64 70 69 68 70 72 73 75 68 72 72 71 71 72 76 72 80 77 84 84 85 83
67 66 69 66 65 70 66 51 56 60 60 62 64 66 71 83 84 82 84 91 86 85
69 65 63 62 61 56 53 51 54 55 57 59 62 61 65 76 79 80 82 82 83 84
70 65 61 56 51 49 50 50 53 54 56 56 60 62 63 67 71 72 76 77 78 77
72 64 58 53 47 46 47 47 49 51 53 55 57 63 61 64 64 67 73 74 74 74
73 62 56 50 49 48 46 45 44 46 51 56 59 60 57 57 60 61 66 70 73 76
71 60 54 54 52 52 50 47 46 47 49 56 56 64 67 60 59 59 59 65 68 74
69 61 56 54 52 48 48 49 51 51 53 58 58 62 74 72 68 63 64 67 63 70
66 59 54 55 55 50 50 46 49 52 59 67 57 64 64 66 75 66 67 70 68 64
64 58 57 56 55 54 50 50 50 54 60 62 69 64 64 61 74 69 71 68 67 60
68 63 57 57 53 51 50 51 57 55 55 60 61 65 63 60 74 68 65 63 60 64
71 67 62 61 62 52 50 51 56 57 62 62 62 69 66 66 74 68 64 56 56 62
74 66 63 62 64 59 52 50 63 58 62 60 60 69 66 69 76 72 64 63 57 52
74 68 61 68 64 64 64 63 60 60 58 57 62 60 68 68 76 72 73 72 68 66
Wind_Speed
3 1 2 1 2 2 2 3 4 5 5 6 5 5 5 4 4 6 5 6 5 4
4 3 2 2 2 1 2 3 5 5 5 6 6 5 6 3 3 3 4 4 4 2
6 5 4 2 2 2 2 2 3 4 5 5 5 5 6 4 4 5 4 3 5 3
6 6 5 4 3 2 2 2 3 4 5 4 4 5 5 5 4 5 5 5 6 6
6 6 6 6 6 4 2 1 1 3 4 4 4 3 5 5 4 4 5 6 6 6
7 7 7 6 5 5 4 1 1 1 3 4 5 4 4 5 5 4 4 5 5 5
7 7 7 6 6 5 4 3 2 0 2 3 3 5 6 6 4 5 4 3 3 4
7 7 7 7 7 6 6 5 4 2 2 1 2 4 4 6 6 3 4 5 5 2
7 7 7 7 7 6 6 6 5 5 4 2 1 5 3 5 5 5 5 4 5 6
8 9 8 7 7 7 6 5 5 5 5 5 5 7 2 3 3 2 2 3 3 4
8 8 8 8 8 6 5 6 6 6 6 5 4 8 6 3 4 2 4 3 2 2
7 8 7 9 8 8 6 5 5 4 6 5 4 9 6 4 4 4 4 2 2 3
8 9 10 9 8 5 4 4 4 5 5 8 5 11 7 6 2 3 2 3 3 4
7 8 9 8 6 7 5 5 5 5 5 5 6 6 10 7 2 3 1 2 3 2
Wind_Direction
207 242 289 34 347 334 352 347 353 349 344 344 344 343 343 352 4 347 3 21 18 4
203 215 244 293 304 358 355 338 2 344 347 341 350 359 343 349 350 350 17 3 2 41
202 201 214 225 275 332 333 339 338 343 342 343 352 4 353 348 8 2 20 18 10 17
207 206 211 199 198 210 287 337 338 339 332 339 349 357 2 347 27 12 16 12 17 14
209 199 208 225 192 177 219 274 303 319 331 342 344 6 2 353 4 31 33 26 27 25
208 207 216 218 197 188 181 217 300 357 333 341 322 34 5 3 2 25 63 39 46 38
206 206 205 206 199 197 189 190 190 275 303 319 341 50 8 350 4 9 23 66 51 79
202 199 197 195 191 196 193 201 184 199 262 10 358 64 18 343 334 16 13 23 13 118
196 197 193 190 196 199 196 195 191 194 192 207 167 108 29 356 331 6 19 10 3 341
198 200 191 187 195 195 194 190 194 202 190 217 156 150 122 332 321 321 317 340 356 334
198 196 182 184 195 193 195 194 186 202 194 202 186 174 179 256 274 286 268 247 280 61
204 196 188 191 179 192 192 195 189 180 185 203 227 186 186 210 299 271 281 253 239 168
208 192 188 182 182 181 174 184 181 200 192 204 209 189 194 200 257 302 283 312 312 319
217 198 185 167 164 156 162 177 194 195 200 207 200 223 196 210 207 261 297 331 299 342